Location: Arran
(51.9410°N, 101.7372°W)
Time: 08:13:07
(UTC+00:00)

SWISSCUBE - Pass Details

Date: 17 May 2025
Orbit: 685 x 693 km, 98.4° (Epoch: 20 June)

Event Time Altitude Azimuth Distance (km) Brightness Sun altitude
Rises 05:35:12 0° 17° (NNE) 3,076 ? -17.1°
Reaches altitude 10° 05:37:29 10° 21° (NNE) 2,156 ? -17.2°
Maximum altitude 05:42:10 62° 102° (ESE) 781 ? -17.4°
Enters shadow 05:44:08 33° 171° (S) 1,155 ? -17.5°
